Location: Demmingen
(48.6757°N, 10.4375°E)
Time: 01:49:19
(UTC+00:00)

AQUA - Pass Details

Date: 23 May 2024
Orbit: 693 x 697 km, 98.3° (Epoch: 13 June)

Event Time Altitude Azimuth Distance (km) Brightness Sun altitude
Rises 01:57:31 0° 14° (NNE) 3,086 8.4 -11.8°
Reaches altitude 10° 01:59:47 10° 14° (NNE) 2,164 7.5 -11.5°
Maximum altitude 02:04:31 89° 90° (E) 702 3.8 -11.0°
Enters shadow 02:09:02 11° 195° (SSW) 2,060 5.7 -10.6°
